7 * 24
多渠道服务支持
STARLINK-37517(NORAD编号69254)是美国SpaceX公司星链(Starlink)星座中的低轨通信卫星,属于第二代星链V2 Mini批次。作为全球最大卫星互联网星座的组成部分,它采用先进相控阵天线和E-band回程技术,单星带宽可达100Gbps,配备激光星间链路,可直接实现星间通信,降低对地面基站依赖。该卫星运行在近地轨道,旨在拓展全球高速宽带互联网覆盖,为偏远地区、海上用户提供网络服务,截至目前仍保持正常在轨运行状态,支撑星链网络的全球服务能力。
美国
(US)
| 数据来源 | 国际轨道数据 |
| 星历时间: | 2026-06-12T14:00:03+0800 15小时前 查看轨道信息 |
| 半长轴: | 6703.109km |
| 偏心率: | 0.0001235 |
| 轨道倾角: | 53.159° |
| 近地点辐角 | 62.094° |
| 升交点赤经 | 267.988° |
| 平近点角 | 112.462° |
| 近地点: | 324.144km |
| 远地点: | 325.8km |
| 周期: | 91.028分钟 |
| 每日圈数: | 15.81934 |